Regional Weather Roundup
Issued by NWS Sioux Falls, SD

Home | Current Version | Previous Version | Graphics & Text | Print | Product List | Glossary On
Versions: 1 2 3 4 5 6 7 8 9 10 11 12 13 14 15 16 17 18 19 20 21 22 23 24 25 26 27 28 29 30 31 32 33 34 35 36 37 38 39 40 41 42 43 44 45 46 47 48 49 50
000
ASUS43 KFSD 302210
RWRFSD

WEATHER ROUNDUP FOR SE SOUTH DAKOTA/SW MINNESOTA/NW IOWA
NATIONAL WEATHER SERVICE SIOUX FALLS SD
500 PM CDT THU JUL 30 2015

NOTE: "FAIR" INDICATES FEW OR NO CLOUDS BELOW 12,000 FEET WITH NO
SIGNIFICANT WEATHER AND OR OBSTRUCTIONS TO VISIBILITY.


SDZ038>040-050-052>070-302300-
SOUTHEAST SOUTH DAKOTA

CITY           SKY/WX    TMP DP  RH WIND       PRES   REMARKS
BROOKINGS      SUNNY     84  55  37 W10       30.13F
CHAMBERLAIN    SUNNY     88  48  25 SE3       30.13F
HURON          SUNNY     88  55  32 W10       30.09F
MADISON        FAIR      84  55  37 NW9       30.14F
MITCHELL       SUNNY     89  57  33 CALM      30.11F
SIOUX FALLS    MOSUNNY   86  57  37 NW6       30.12F
WINNER         FAIR      92  48  22 NW8       30.15F
YANKTON        SUNNY     88  63  42 W7        30.09F
$$

MNZ071-072-080-081-089-090-097-098-302300-
SOUTHWEST MINNESOTA

CITY           SKY/WX    TMP DP  RH WIND       PRES   REMARKS
FAIRMONT       SUNNY     84  55  37 W8        30.10F
JACKSON        SUNNY     84  59  42 W8        30.12F
LUVERNE        SUNNY     84  63  48 W5        30.13F
MARSHALL       SUNNY     84  54  34 W14       30.10F
MONTEVIDEO     SUNNY     88  57  35 NW8       30.08F
PIPESTONE      SUNNY     82  59  44 W8        30.13F
REDWOOD FALLS  SUNNY     85  55  35 W9        30.07F
TRACY          SUNNY     84  59  42 W5        30.11S
WINDOM         SUNNY     84  57  39 W8        30.11F
WORTHINGTON    SUNNY     82  63  51 SW7       30.13F
$$

IAZ001>003-012>014-020>022-031-032-NEZ013-014-SDZ071-302300-
NORTHWEST IOWA

CITY           SKY/WX    TMP DP  RH WIND       PRES   REMARKS
CHEROKEE       SUNNY     84  65  53 W8        30.12F
DENISON        SUNNY     82  64  54 W8G15     30.13S HAZE
ESTHERVILLE    SUNNY     83  60  45 W7        30.11F
LE MARS        SUNNY     84  68  58 SW9       30.13F
ORANGE CITY    SUNNY     82  66  57 SW9       30.13F
SHELDON        SUNNY     84  64  51 W5        30.12S
SIOUX CITY     SUNNY     88  66  48 W8        30.11F
SPENCER        SUNNY     86  61  42 W7        30.12F
STORM LAKE     SUNNY     82  68  61 W10       30.14F
$$

ABBREVIATIONS USED IN REMARKS
   TC - TEMPERATURE IN CELSIUS
  WCI - WIND CHILL INDEX
   HX - HEAT INDEX
  VSB - VISIBILITY




USA.gov is the U.S. government's official web portal to all federal, state and local government web resources and services.